Bogalusa, LA

10:49 AM CDT on July 28, 2016 (GMT -0500)
Carr Memorial

Weather History for KBXA - March, 2013

Change the Weather History Date:

Sunday, March 3, 2013

  Actual Average Record
Temperature  
Mean Temperature 38 °F -  
Max Temperature 52 °F 69 °F 79 °F (2015)
Min Temperature 25 °F 46 °F 25 °F (2013)
Degree Days  
Heating Degree Days 26    
Moisture  
Dew Point 13 °F    
Average Humidity 46    
Maximum Humidity 90    
Minimum Humidity 4    
Precipitation  
Precipitation 0.00 in - - ()
Sea Level Pressure  
Sea Level Pressure 30.22 in    
Wind  
Wind Speed 3 mph (NNW)    
Max Wind Speed 12 mph    
Max Gust Speed 18 mph    
Visibility 10 miles    
Events      
Averages and records for this station are not official NWS values.
T = Trace of Precipitation, MM = Missing Value Source: NWS Daily Summary

Daily Weather History Graph

Daily Weather History Graph

Search for Another Location

Airport or City:

Trip Planner

Search our weather history database for the weather conditions in past years. The results will help you decide how hot, cold, wet, or windy it might be!

Date:

Astronomy

Mar. 03, 2013 Rise Set
Actual Time 6:23 AM CST 5:59 PM CST
Civil Twilight 5:59 AM CST 6:23 PM CST
Nautical Twilight 5:31 AM CST 6:51 PM CST
Astronomical Twilight 5:03 AM CST 7:19 PM CST
Moon No Moon Rise 10:05 AM CST (3/3)
Length of Visible Light 12h 24m
Length of Day
11h 36m
Waning Gibbous, 63% of the Moon is Illuminated
Mar 3
Waning Gibbous
Mar 4
Last Quarter
Mar 11
New
Mar 19
First Quarter
Mar 27
Full

Hourly Weather History & Observations

Time (CST) Temp. Windchill Dew Point Humidity Pressure Visibility Wind Dir Wind Speed Gust Speed Precip Events Conditions
12:15 AM 30.2 °F - 14.7 °F 53% 30.26 in 10.0 mi Calm Calm - N/A   Unknown
12:35 AM 29.3 °F 25.6 °F 14.7 °F 55% 30.26 in 10.0 mi NW 3.5 mph - N/A   Unknown
12:55 AM 29.1 °F - 15.3 °F 56% 30.27 in 10.0 mi Calm Calm - N/A   Unknown
1:35 AM 28.9 °F - 15.4 °F 57% 30.26 in 10.0 mi Calm Calm - N/A   Unknown
1:55 AM 29.3 °F 25.6 °F 15.1 °F 55% 30.25 in 10.0 mi NNW 3.5 mph - N/A   Unknown
2:15 AM 28.8 °F - 15.4 °F 58% 30.25 in 10.0 mi Calm Calm - N/A   Unknown
2:55 AM 28.2 °F 24.4 °F 14.9 °F 57% 30.24 in 10.0 mi NNW 3.5 mph - N/A   Unknown
3:15 AM 28.4 °F - 15.3 °F 58% 30.24 in 10.0 mi Calm Calm - N/A   Unknown
3:35 AM 27.7 °F - 16.7 °F 63% 30.24 in 10.0 mi Calm Calm - N/A   Unknown
3:55 AM 26.6 °F - 14.0 °F 59% 30.25 in 10.0 mi Calm Calm - N/A   Unknown
4:15 AM 26.6 °F - 14.2 °F 60% 30.26 in 10.0 mi Calm Calm - N/A   Unknown
4:35 AM 27.1 °F 23.2 °F 14.7 °F 60% 30.26 in 10.0 mi NNW 3.5 mph - N/A   Unknown
4:55 AM 26.2 °F 22.1 °F 14.2 °F 60% 30.26 in 10.0 mi NNW 3.5 mph - N/A   Unknown
5:15 AM 26.1 °F 21.9 °F 14.4 °F 61% 30.26 in 10.0 mi NW 3.5 mph - N/A   Unknown
5:55 AM 25.7 °F 21.5 °F 13.6 °F 60% 30.27 in 10.0 mi NW 3.5 mph - N/A   Unknown
6:15 AM 25.7 °F - 13.6 °F 60% 30.28 in 10.0 mi Calm Calm - N/A   Unknown
6:55 AM 26.8 °F 22.8 °F 14.2 °F 59% 30.29 in 10.0 mi NW 3.5 mph - N/A   Unknown
7:15 AM 29.3 °F 23.2 °F 14.0 °F 53% 30.29 in 10.0 mi NW 5.8 mph - N/A   Unknown
7:35 AM 30.9 °F 25.2 °F 13.8 °F 49% 30.30 in 10.0 mi NW 5.8 mph - N/A   Unknown
7:55 AM 32.2 °F 25.8 °F 13.5 °F 46% 30.31 in 10.0 mi NNW 6.9 mph - N/A   Unknown
8:15 AM 34.3 °F 29.2 °F 12.4 °F 40% 30.31 in 10.0 mi NW 5.8 mph - N/A   Unknown
8:35 AM 36.7 °F 30.5 °F 9.3 °F 32% 30.31 in 10.0 mi NNW 8.1 mph - N/A   Unknown
8:55 AM 37.4 °F 31.4 °F 6.1 °F 27% 30.30 in 10.0 mi North 8.1 mph - N/A   Unknown
9:15 AM 38.3 °F 30.9 °F 3.9 °F 24% 30.30 in 10.0 mi North 11.5 mph - N/A   Unknown
9:35 AM 39.4 °F 33.8 °F 3.4 °F 22% 30.30 in 10.0 mi North 8.1 mph - N/A   Clear
9:55 AM 40.6 °F 36.7 °F 1.0 °F 19% 30.30 in 10.0 mi NW 5.8 mph - N/A   Unknown
10:15 AM 41.4 °F 36.2 °F -0.9 °F 17% 30.29 in 10.0 mi NNW 8.1 mph - N/A   Unknown
10:35 AM 43.5 °F 37.9 °F -5.4 °F 13% 30.28 in 10.0 mi NNW 10.4 mph 16.1 mph N/A   Unknown
10:55 AM 44.4 °F 40.5 °F -9.9 °F 10% 30.28 in 10.0 mi North 6.9 mph - N/A   Unknown
11:15 AM 45.5 °F 41.3 °F -11.0 °F 9% 30.26 in 10.0 mi NW 8.1 mph - N/A   Unknown
11:35 AM 46.4 °F 44.3 °F -14.6 °F 7% 30.26 in 10.0 mi North 4.6 mph - N/A   Unknown
11:55 AM 48.0 °F - -21.8 °F 5% 30.24 in 10.0 mi NNW 8.1 mph 18.4 mph N/A   Unknown
12:15 PM 48.4 °F - -30.6 °F 4% 30.23 in 10.0 mi NNE 4.6 mph - N/A   Unknown
12:35 PM - - - N/A% 30.22 in 10.0 mi NNE 9.2 mph 17.3 mph N/A   Clear
12:55 PM - - - N/A% 30.21 in 10.0 mi NNE 8.1 mph - N/A   Unknown
1:15 PM - - - N/A% 30.20 in 10.0 mi North 8.1 mph - N/A   Unknown
1:35 PM - - - N/A% 30.19 in 10.0 mi Calm Calm - N/A   Unknown
1:55 PM - - - N/A% 30.19 in 10.0 mi NW 5.8 mph - N/A   Unknown
2:35 PM - - - N/A% 30.18 in 10.0 mi North 3.5 mph - N/A   Unknown
2:55 PM - - - N/A% 30.18 in 10.0 mi West 8.1 mph - N/A   Unknown
3:35 PM - - - N/A% 30.18 in 10.0 mi NW 8.1 mph - N/A   Clear
3:55 PM - - - N/A% 30.17 in 10.0 mi WNW 6.9 mph - N/A   Clear
4:15 PM - - - N/A% 30.16 in 10.0 mi WNW 3.5 mph - N/A   Unknown
4:35 PM - - - N/A% 30.16 in 10.0 mi NW 5.8 mph - N/A   Unknown
4:55 PM - - - N/A% 30.16 in 10.0 mi NW 4.6 mph - N/A   Unknown
5:15 PM - - - N/A% 30.16 in 10.0 mi WNW 4.6 mph - N/A   Unknown
5:35 PM - - - N/A% 30.16 in 10.0 mi West 3.5 mph - N/A   Unknown
5:55 PM 52.3 °F - -14.8 °F 6% 30.16 in 10.0 mi Calm Calm - N/A   Unknown
6:15 PM 47.3 °F - 17.1 °F 30% 30.17 in 10.0 mi Calm Calm - N/A   Unknown
6:35 PM 44.2 °F - 22.1 °F 42% 30.17 in 10.0 mi Calm Calm - N/A   Unknown
6:55 PM 44.6 °F - 20.1 °F 38% 30.18 in 10.0 mi Calm Calm - N/A   Unknown
7:15 PM 42.6 °F - 22.1 °F 44% 30.18 in 10.0 mi Calm Calm - N/A   Unknown
7:35 PM 40.8 °F - 22.6 °F 48% 30.18 in 10.0 mi Calm Calm - N/A   Clear
7:55 PM 40.8 °F - 24.4 °F 52% 30.17 in 10.0 mi Calm Calm - N/A   Clear
8:15 PM 39.4 °F - 23.9 °F 54% 30.18 in 10.0 mi Calm Calm - N/A   Clear
8:35 PM 39.2 °F - 23.5 °F 53% 30.18 in 10.0 mi Calm Calm - N/A   Clear
8:55 PM 38.7 °F - 22.8 °F 53% 30.18 in 10.0 mi Calm Calm - N/A   Clear
9:15 PM 38.3 °F - 23.9 °F 56% 30.18 in 10.0 mi Calm Calm - N/A   Clear
9:35 PM 37.9 °F - 23.0 °F 55% 30.19 in 10.0 mi Calm Calm - N/A   Clear
9:55 PM 38.5 °F - 21.9 °F 51% 30.17 in 10.0 mi Calm Calm - N/A   Clear
10:15 PM 36.3 °F - 23.2 °F 59% 30.18 in 10.0 mi Calm Calm - N/A   Clear
10:35 PM 36.5 °F - 31.1 °F 81% 30.18 in 10.0 mi Calm Calm - N/A   Clear
10:55 PM 36.1 °F - 24.3 °F 62% 30.17 in 10.0 mi Calm Calm - N/A   Clear
11:15 PM 36.5 °F - 24.3 °F 61% 30.16 in 10.0 mi Calm Calm - N/A   Clear
11:35 PM 36.0 °F - 32.9 °F 89% 30.16 in 10.0 mi Calm Calm - N/A   Clear
11:55 PM 35.1 °F - 32.4 °F 90% 30.15 in 10.0 mi Calm Calm - N/A   Clear